Terug naar catalogus

ONEWEB-0325

ActiefCommunicatiePO
NORAD 49194·PAYLOAD·🇬🇧 United Kingdom

Gelanceerd Sep 14, 2021 vanaf Baikonur Cosmodrome

Loading…

Volgende Passages (komende 24 uur)

TLE

VersSource: CelesTrak SupGP

Epoch: Sep 14, 2026, 14:53 UTC

1 49194C 21083J   26257.62066389  .00001540  00000+0  39109-2 0  2573
2 49194  87.9167 317.6865 0002055  98.5922  13.9441 13.18688431    16

Volg ONEWEB-0325 in realtime met AllMySat

Download on the App Store